Regional Weather Roundup
Issued by NWS

Home | Current Version | Previous Version | Text Only | Print | Product List | Glossary On
Versions: 1 2 3 4 5 6 7 8 9 10 11 12 13 14 15 16 17 18 19 20 21 22 23 24 25 26 27 28 29 30 31 32 33 34 35 36 37 38 39 40 41 42 43 44 45 46 47 48 49 50
708
ASUS44 KFWD 170410
RWRTX
NORTH TEXAS HOURLY WEATHER ROUNDUP
NATIONAL WEATHER SERVICE FORT WORTH TX
ISSUED BY NWS SHREVEPORT LA
1000 PM CST MON JAN 16 2017

NOTE: "FAIR" INDICATES FEW OR NO CLOUDS BELOW 12,000 FEET WITH NO
SIGNIFICANT WEATHER AND/OR OBSTRUCTIONS TO VISIBILITY.

TXZ118-119-170500-
DALLAS/FORT WORTH METROPLEX

CITY           SKY/WX    TMP DP  RH WIND       PRES   REMARKS
DFW AIRPORT    CLOUDY    51  42  71 N7        30.05R
DALLAS LOVE    CLOUDY    54  42  64 N7        30.05R
FTW MEACHAM    CLOUDY    52  40  63 N8        30.05R
DAL-EXECUTIVE  CLOUDY    54  45  71 N5        30.05R
FTW-ALLIANCE   MOCLDY    47  40  76 N3        30.05S
FTW-SPINKS     CLOUDY    51  44  75 CALM      30.07R
ARLINGTON      CLOUDY    53  42  66 N7        30.05R
GRAND PRAIRIE  MOCLDY    54  41  62 N7        30.07R
ADDISON        CLOUDY    53  43  68 N6        30.07S
$$

TXZ091>094-102>105-117-120-121-131>134-170500-
NORTH CENTRAL TEXAS

CITY           SKY/WX    TMP DP  RH WIND       PRES   REMARKS
SHRMAN/DENISON CLEAR     44  40  86 NW7       30.08S WCI  40
GAINESVILLE    CLEAR     42  38  88 CALM      30.10S
DECATUR        CLOUDY    69  59  70 NW8       30.07S
DENTON         PTCLDY    47  40  76 NW7       30.06S
MCKINNEY       PTCLDY    50  42  74 N6        30.06R
GREENVILLE     PTCLDY    50  45  81 CALM      30.07R
TERRELL        MOCLDY    53  46  77 N5        30.07R
$$

TXZ083>090-098>101-113>116-127>130-139>142-154-155-170500-
WESTERN NORTH TEXAS

CITY           SKY/WX    TMP DP  RH WIND       PRES   REMARKS
WICHITA FALLS  CLEAR     39  35  86 NW8       30.09R WCI  33
ABILENE        PTCLDY    48  43  82 NE7       30.08R
GRAHAM         PTCLDY    46  41  81 N10       30.08R
MINERAL WELLS  CLOUDY    46  40  79 N8        30.05R
STEPHENVILLE   CLOUDY    52  45  76 CALM      30.08R
BROWNWOOD      CLOUDY    54  46  76 NE5       30.05S
$$

TXZ143>147-156>162-174-175-170500-
CENTRAL TEXAS

CITY           SKY/WX    TMP DP  RH WIND       PRES   REMARKS
WACO           CLOUDY    59  53  80 N5        30.04R
WACO-MCGREGOR  CLOUDY    59  53  80 NE5       30.05R
CORSICANA      CLOUDY    60  56  86 N3        30.07R
TEMPLE         CLOUDY    58  54  86 E6        30.04S
KILLEEN-GRAY   CLOUDY    59  51  77 CALM      30.02R
KILLEEN-SKYLRK CLOUDY    61  53  75 E6        30.03R HAZE
$$

TXZ095>097-106>112-122>126-135>138-148>153-164>167-170500-
EAST TEXAS

CITY           SKY/WX    TMP DP  RH WIND       PRES   REMARKS
PARIS          CLOUDY    48  43  81 NW6       30.05S
MOUNT PLEASANT PTCLDY    58  48  70 NW7       30.07R
GILMER         RAIN      56  55  98 CALM      30.05S
TYLER          LGT RAIN  58  56  93 CALM      30.05S
LONGVIEW       LGT RAIN  57  57 100 CALM      30.05R
MARSHALL       CLOUDY    55  52  91 NW3       30.08S
PALESTINE      DRIZZLE   57  57  99 N3        30.07R
JACKSONVILLE   CLOUDY    56  56 100 N5        30.07S
NACOGDOCHES    CLOUDY    61  57  88 N7        30.03S
LUFKIN         CLOUDY    66  64  93 NW5       30.03R
$$

SUPPLEMENTAL OBSERVATIONS (CENTRAL)

CITY           SKY/WX    TMP DP  RH WIND       PRES   REMARKS
$$

SUPPLEMENTAL OBSERVATIONS (WEST)

CITY           SKY/WX    TMP DP  RH WIND       PRES   REMARKS
$$

SUPPLEMENTAL OBSERVATIONS (EAST)

CITY           SKY/WX    TMP DP  RH WIND       PRES   REMARKS
$$

SUPPLEMENTAL OBSERVATIONS ARE A COLLECTION OF AUTOMATED INSTRUMENTS
THAT ARE MAINTAINED BY A VARIETY OF FEDERAL AND STATE AGENCIES.
CERTAIN ELEMENTS...SUCH AS HUMIDITY VALUES AND SUSTAINED WIND
SPEEDS...MAY BE ESTIMATED.





USA.gov is the U.S. government's official web portal to all federal, state and local government web resources and services.